Temperature
20 20 20 19 19 19 19 19 19 18 18 18 18 17 17 17 17 17 17 17 17 17 17 17 16 17 17 17 17 17 17 17 17 17 17 17 17 17 17 17 17 17 17
19 19 19 19 19 19 19 19 19 18 18 18 17 17 17 17 17 17 17 17 17 17 17 17 16 16 17 17 17 17 17 16 16 16 16 16 17 17 17 17 17 17 17
20 20 20 20 19 19 19 19 19 18 18 18 18 17 17 17 17 17 17 17 17 16 16 16 16 16 16 16 16 16 16 16 16 16 16 16 16 16 17 17 17 17 17
20 20 20 20 20 19 19 19 19 18 18 18 17 17 17 17 17 17 17 17 17 16 16 16 16 16 16 16 16 16 16 16 16 16 16 16 16 16 16 16 16 16 16
21 21 21 20 20 20 19 19 18 18 18 17 17 17 17 17 17 17 17 17 17 16 16 16 16 16 16 16 16 16 16 16 16 16 16 16 16 16 15 16 16 16 16
21 21 21 20 20 20 19 19 18 18 18 17 17 17 17 17 17 17 17 17 17 16 16 16 16 16 16 16 16 16 16 16 16 16 16 16 15 15 15 15 15 15 16
21 21 20 20 20 20 19 19 18 18 18 18 17 17 17 17 17 17 17 16 16 16 16 16 16 16 16 16 15 15 15 15 15 15 15 15 15 15 15 15 15 15 15
21 21 21 21 20 20 19 19 19 18 18 18 17 17 17 17 17 16 16 16 16 16 16 16 16 15 15 15 15 15 15 15 15 15 15 15 15 15 15 15 15 14 14
21 21 21 20 20 20 20 19 19 18 18 18 17 17 17 17 17 16 16 16 16 16 16 16 16 15 15 15 15 15 15 15 15 15 15 15 15 15 15 15 15 14 14
21 21 21 20 20 20 19 19 19 18 18 18 17 17 17 17 16 16 16 16 16 16 16 16 16 15 15 15 15 15 15 15 15 15 15 15 15 14 14 14 14 14 14
21 21 20 20 20 20 19 19 19 18 18 17 17 17 17 16 16 16 16 16 16 16 15 15 15 15 15 15 15 15 14 14 14 14 14 14 14 14 14 14 14 14 14
21 21 20 20 20 19 19 19 19 18 18 17 17 17 16 16 16 16 16 16 16 15 15 15 15 15 15 14 14 14 14 14 14 14 14 14 14 14 14 14 14 14 14
20 20 20 20 20 19 19 19 19 18 18 17 17 16 16 16 16 16 16 15 15 15 15 15 15 14 14 14 14 14 14 14 14 14 14 14 14 14 14 14 13 13 13
20 20 20 20 19 19 19 19 18 18 18 17 17 16 16 16 16 16 15 15 15 15 15 15 14 14 14 14 14 14 14 14 13 13 13 13 13 13 13 13 13 13 13
20 20 20 20 19 19 19 19 18 18 17 17 17 17 16 16 15 15 15 15 15 15 15 14 14 14 14 14 13 13 13 13 13 13 13 13 13 13 13 13 13 12 12
20 20 20 19 19 19 19 19 18 18 17 17 17 17 16 16 15 15 15 15 15 14 14 14 14 14 13 13 13 13 13 13 13 13 13 13 13 13 12 12 12 12 12
20 20 20 20 19 19 19 19 18 18 17 17 17 16 16 16 15 15 15 15 14 14 14 14 14 13 13 13 13 13 13 13 13 12 12 12 12 12 12 12 12 12 12
20 20 20 20 19 19 19 18 18 18 17 17 16 16 16 15 15 15 15 14 14 14 14 13 13 13 13 13 12 12 12 12 12 12 12 12 12 12 12 12 12 12 11
21 20 20 20 19 19 18 18 18 17 17 17 16 16 15 15 15 15 14 14 14 14 13 13 13 13 12 12 12 12 12 12 12 12 12 11 11 11 11 11 11 11 11
21 20 20 19 19 18 18 18 17 17 17 16 16 16 15 15 15 14 14 14 13 13 13 13 13 13 12 12 12 12 12 12 11 11 11 11 11 11 11 11 11 11 11
20 20 19 19 18 18 18 17 17 17 16 16 16 15 15 15 14 14 14 13 13 13 13 13 13 12 12 12 12 12 12 11 11 11 11 11 11 11 11 11 10 10 10
20 20 19 18 18 18 17 17 17 17 16 15 15 15 15 14 14 14 13 13 13 13 13 13 12 12 12 12 12 11 11 11 11 11 11 10 10 10 10 10 10 10 10
20 19 19 18 18 17 17 17 17 16 15 15 15 15 14 14 14 13 13 13 13 13 12 12 12 12 12 12 12 11 11 11 11 11 10 10 10 10 10 10 10 10 10
19 19 18 18 17 17 17 16 16 15 15 15 15 14 14 14 13 13 13 13 13 13 12 12 12 12 12 12 11 11 11 11 10 10 10 10 10 10 10 10 10 10 10
19 18 18 18 17 17 16 16 15 15 15 14 14 14 14 14 13 13 13 13 13 13 12 12 12 12 12 11 11 11 11 11 10 10 10 10 10 10 10 10 10 10 9
18 17 17 17 17 16 16 16 15 15 15 14 14 14 14 13 13 13 13 13 12 12 12 12 12 12 11 11 11 11 10 10 10 10 10 9 9 9 9 9 9 9 9
Wind_Speed
4 3 3 3 2 1 1 1 1 1 2 1 1 0 1 1 1 1 1 2 1 1 1 1 1 1 1 0 1 1 1 1 1 1 1 2 1 1 0 0 0 0 1
4 4 3 3 3 3 2 1 1 1 1 1 1 1 1 0 0 1 2 2 2 1 0 1 0 0 1 1 1 2 1 0 1 1 1 2 3 2 1 0 0 1 1
8 6 5 4 4 4 4 3 2 2 2 1 1 2 2 2 2 2 2 3 2 2 1 1 0 0 1 1 1 1 2 1 0 1 2 2 2 2 2 1 1 1 1
8 7 6 6 5 5 4 3 2 2 1 2 2 3 2 1 0 0 1 2 2 2 2 1 1 1 1 0 0 1 1 2 1 0 0 1 2 1 1 2 2 2 2
8 8 8 8 6 5 4 3 2 1 1 2 3 2 1 1 0 1 2 2 2 2 2 1 1 1 0 0 0 1 1 1 2 1 1 1 1 0 1 2 2 2 2
8 7 6 6 5 4 4 4 3 2 2 2 2 3 2 1 1 1 2 2 2 2 3 2 1 1 0 0 1 1 1 1 2 1 1 2 1 1 1 2 2 2 2
7 6 6 6 5 5 5 4 4 3 2 3 2 2 2 2 2 1 0 1 1 2 2 2 1 1 0 0 0 0 1 1 2 2 1 1 1 1 2 1 2 2 2
6 7 6 5 5 5 5 5 5 4 3 3 2 2 2 2 1 1 1 1 1 2 2 1 1 1 1 0 0 0 1 1 1 1 1 1 1 2 2 2 2 1 2
5 5 5 5 5 5 5 6 5 4 3 3 2 2 1 1 1 1 1 1 1 1 1 1 1 1 1 1 0 0 1 0 1 1 1 1 1 1 2 2 3 2 2
4 4 4 4 4 4 4 4 5 4 3 2 2 2 1 1 1 0 1 1 1 1 1 1 1 1 1 1 1 1 1 1 1 0 0 1 1 1 1 2 2 2 3
5 4 4 3 3 3 3 4 4 3 2 2 2 1 1 0 0 0 1 1 1 0 0 0 1 2 2 2 1 1 1 0 1 1 0 1 1 1 1 1 1 2 2
3 3 4 3 3 3 3 4 4 3 3 2 2 1 0 0 0 1 2 1 1 1 1 0 1 2 2 2 2 1 1 1 1 1 1 1 1 1 0 0 1 1 1
3 3 3 3 3 3 3 3 3 4 3 3 2 1 0 0 1 2 2 1 1 1 1 1 1 1 2 2 1 1 1 1 1 1 1 2 1 1 1 1 1 1 1
4 3 3 2 3 3 4 4 3 3 4 4 3 1 0 1 2 2 2 1 1 0 1 1 1 1 1 1 1 1 1 1 2 2 1 2 1 2 1 1 1 1 1
3 4 4 3 3 3 3 3 3 3 3 3 3 2 2 1 1 2 2 1 1 1 1 1 1 1 1 1 1 1 1 2 2 3 2 2 1 2 0 0 1 0 0
4 4 4 4 4 4 3 3 3 2 3 3 3 2 1 1 1 2 1 1 1 1 1 1 1 2 2 3 3 2 2 2 2 3 3 2 2 3 3 2 1 1 1
5 5 5 5 4 4 4 4 4 3 3 2 2 1 1 1 2 1 1 1 1 1 1 1 1 1 2 3 3 2 1 1 1 2 2 2 3 3 3 3 3 2 1
5 5 5 4 3 3 4 4 3 3 3 3 2 1 1 1 1 0 0 1 0 0 0 1 1 1 2 3 3 3 2 1 1 1 1 2 3 3 3 2 3 3 3
5 4 5 4 4 3 3 4 3 3 3 3 2 2 2 1 1 1 1 1 0 0 1 1 1 1 2 3 3 2 1 1 2 2 2 2 2 4 3 1 2 3 4
3 4 4 3 4 3 4 4 3 3 3 3 3 3 2 2 2 2 1 1 1 1 1 1 1 1 2 2 2 1 1 1 2 2 3 3 3 3 2 1 1 2 4
3 4 5 4 3 3 4 4 3 4 4 3 2 2 2 2 2 2 1 1 1 1 1 1 1 1 2 2 2 1 1 1 1 2 3 3 4 3 3 2 2 4 4
4 5 5 3 2 3 4 4 3 3 2 2 2 2 2 1 1 1 1 1 1 1 1 1 2 1 2 2 2 2 1 1 1 2 2 3 4 4 4 3 3 4 3
4 4 5 4 2 2 4 4 4 2 3 2 2 2 1 1 1 1 1 1 1 1 2 1 2 2 2 2 2 2 2 1 1 2 2 3 4 4 3 3 4 3 2
4 4 5 4 3 2 3 3 3 3 3 2 2 1 1 1 1 1 1 2 2 2 2 2 2 2 2 2 2 2 2 2 1 2 2 3 3 3 3 4 3 2 1
3 4 4 5 4 3 2 2 2 3 3 2 2 2 1 1 1 1 2 3 3 4 4 4 4 3 3 4 4 3 2 2 2 1 1 2 3 3 4 4 4 3 2
3 3 3 4 3 3 3 2 3 4 4 3 2 2 2 1 1 1 2 2 3 4 5 5 5 4 5 5 4 3 2 2 1 1 0 2 2 2 3 4 4 3 3
Wind_Direction
205 186 175 159 149 145 145 157 150 124 107 93 94 157 291 323 358 11 20 7 352 11 68 44 17 53 81 89 105 98 83 54 54 75 25 4 340 3 336 293 113 274 250
189 185 175 168 173 184 188 181 187 158 143 151 190 176 168 184 318 353 22 20 11 1 50 82 293 126 132 70 86 108 94 63 71 110 97 6 345 334 324 299 222 271 262
194 193 189 188 186 197 198 198 201 192 183 158 113 98 76 50 29 16 12 8 10 5 19 44 91 100 142 164 181 153 149 165 51 97 132 142 236 304 325 305 302 299 255
190 193 193 194 198 205 196 188 184 183 171 140 123 131 125 127 234 328 4 359 13 9 1 23 73 90 100 135 222 143 158 156 168 153 90 165 157 177 315 329 336 326 297
191 195 198 198 198 193 186 184 173 175 160 147 149 134 119 150 86 54 35 15 5 8 9 14 54 59 61 39 188 121 141 160 167 163 153 134 102 128 206 284 324 336 321
192 196 193 184 183 180 178 168 167 189 177 160 153 153 155 143 89 41 18 3 355 355 3 12 38 48 36 309 261 189 159 166 160 159 148 153 155 188 199 234 280 301 302
185 185 185 179 180 181 180 172 173 194 194 171 170 180 182 172 172 191 287 341 341 334 332 348 354 3 322 293 249 149 196 195 180 184 193 183 186 180 185 195 248 274 295
182 183 185 181 184 186 181 176 181 194 188 182 193 193 186 185 206 215 227 249 263 284 309 329 340 333 334 330 50 308 254 217 199 192 193 198 216 196 194 191 199 262 297
172 176 174 173 177 183 184 181 180 186 186 187 183 182 189 191 219 236 236 257 274 315 348 4 6 1 10 356 55 329 294 221 213 211 215 230 243 222 215 205 187 188 257
162 167 172 170 175 182 180 169 170 181 181 166 171 166 176 193 215 219 282 293 313 348 27 18 359 352 359 5 36 32 355 45 335 246 237 290 290 266 225 206 205 201 207
171 171 168 163 165 155 149 158 162 158 152 151 157 150 157 171 151 243 292 307 312 315 349 318 348 360 5 10 20 353 357 1 334 317 259 286 278 265 252 207 201 209 200
159 159 153 142 141 152 154 157 157 151 154 147 142 162 198 351 355 313 308 310 288 287 284 336 34 19 13 12 24 342 349 345 330 321 335 318 299 283 278 229 241 238 217
133 129 134 143 154 160 152 149 151 149 138 127 125 112 31 344 302 297 305 316 293 316 356 43 38 15 6 13 4 328 336 340 312 314 309 304 307 312 319 296 277 279 275
162 156 157 160 166 165 158 155 156 148 138 129 131 143 253 283 282 286 298 302 267 286 326 352 5 356 19 22 13 9 6 354 329 315 303 298 283 274 272 283 277 288 313
181 181 179 181 174 163 159 156 159 156 149 146 165 209 228 243 280 291 294 301 330 347 353 45 27 10 27 15 22 30 31 14 349 342 333 328 345 0 338 304 255 228 285
206 196 187 182 183 183 174 162 165 164 151 167 194 211 220 231 250 260 273 322 350 345 28 46 38 27 19 22 37 55 34 19 4 349 345 351 10 11 13 14 23 112 183
212 202 196 192 193 192 179 177 178 163 155 177 205 208 203 225 252 258 286 306 323 23 40 22 38 20 359 14 19 36 50 32 11 353 349 5 12 15 9 6 7 354 338
207 202 193 190 191 182 175 173 165 161 166 179 200 206 202 220 238 226 262 286 326 38 7 6 349 347 349 9 25 34 60 48 1 340 337 352 346 354 1 5 3 344 333
197 191 183 179 168 165 167 154 157 160 168 190 199 204 192 192 187 204 251 254 184 251 257 226 250 295 323 2 22 44 76 44 351 348 360 351 332 340 1 33 3 341 330
161 162 152 137 141 159 155 150 168 174 201 214 214 203 180 179 198 218 238 235 204 233 263 285 261 251 291 335 1 47 105 53 350 349 345 342 334 339 360 6 314 310 309
144 141 136 143 162 158 148 157 179 209 220 207 193 187 184 191 198 205 225 220 220 247 281 290 296 286 291 312 332 351 150 202 306 327 328 328 335 331 328 307 279 272 284
125 134 135 142 152 156 157 172 206 221 189 171 178 191 201 218 208 200 258 261 202 189 256 285 306 304 305 312 321 326 261 208 209 274 297 308 324 324 320 311 298 296 297
137 139 140 139 147 164 167 189 221 192 163 163 184 197 202 216 200 207 232 269 225 212 239 241 261 285 297 302 316 333 320 286 251 269 281 303 314 318 318 314 312 316 310
152 149 139 149 179 200 201 205 196 171 161 179 202 197 192 257 282 237 219 217 227 229 234 234 246 266 282 293 305 313 310 320 313 319 337 339 333 331 321 326 329 321 284
164 160 168 180 198 207 212 198 171 157 169 192 212 227 221 223 237 254 240 228 231 221 218 227 222 227 254 261 254 245 252 258 263 320 11 3 355 358 352 343 335 328 322
163 167 179 183 192 198 212 208 181 171 172 197 218 226 229 228 226 242 305 290 247 246 229 226 220 230 238 262 270 252 242 231 186 121 339 320 318 320 321 321 322 321 312
Height
1518 1520 1521 1522 1523 1523 1523 1523 1523 1523 1522 1522 1522 1521 1521 1521 1520 1520 1520 1520 1519 1519 1518 1517 1517 1517 1517 1517 1517 1517 1517 1518 1518 1519 1519 1520 1520 1521 1521 1522 1522 1523 1524
1517 1518 1519 1520 1521 1522 1523 1523 1523 1522 1522 1521 1521 1520 1520 1520 1520 1520 1519 1519 1519 1518 1517 1517 1516 1516 1516 1516 1516 1516 1516 1517 1517 1518 1518 1519 1520 1519 1520 1520 1521 1521 1522
1514 1516 1518 1519 1520 1521 1522 1522 1522 1522 1522 1521 1520 1520 1520 1519 1519 1519 1519 1519 1518 1518 1517 1516 1516 1515 1515 1515 1515 1516 1516 1516 1517 1517 1518 1518 1518 1518 1519 1519 1519 1520 1520
1512 1514 1516 1517 1519 1520 1521 1521 1521 1521 1521 1521 1520 1520 1519 1519 1519 1519 1519 1518 1518 1517 1516 1515 1515 1515 1515 1515 1515 1515 1515 1515 1515 1516 1517 1517 1517 1517 1517 1517 1517 1518 1518
1510 1512 1514 1515 1517 1518 1519 1520 1521 1521 1521 1521 1521 1520 1520 1519 1519 1519 1518 1518 1517 1516 1516 1515 1514 1514 1514 1514 1514 1514 1514 1514 1514 1515 1515 1515 1516 1516 1516 1515 1515 1515 1516
1508 1510 1512 1514 1515 1517 1518 1519 1520 1520 1521 1520 1520 1520 1520 1520 1519 1518 1518 1517 1517 1516 1515 1515 1514 1514 1513 1513 1513 1513 1513 1513 1513 1513 1513 1514 1514 1514 1514 1513 1513 1513 1513
1505 1508 1510 1512 1513 1515 1516 1518 1519 1519 1520 1520 1519 1519 1519 1519 1519 1518 1518 1517 1516 1515 1514 1514 1513 1513 1513 1513 1512 1512 1512 1512 1512 1512 1512 1512 1512 1512 1512 1512 1511 1511 1511
1503 1505 1508 1510 1512 1514 1515 1516 1517 1518 1519 1519 1518 1519 1519 1519 1518 1518 1517 1516 1515 1515 1514 1513 1513 1512 1512 1512 1511 1511 1511 1511 1511 1511 1511 1511 1510 1510 1510 1510 1510 1509 1508
1502 1505 1507 1509 1511 1512 1514 1515 1516 1517 1518 1518 1518 1518 1518 1518 1518 1517 1517 1516 1515 1514 1513 1512 1512 1511 1511 1510 1510 1510 1510 1509 1509 1509 1509 1509 1509 1508 1508 1508 1508 1508 1506
1502 1504 1506 1508 1510 1512 1513 1514 1515 1516 1517 1517 1518 1518 1518 1517 1517 1517 1516 1515 1514 1513 1512 1511 1511 1510 1509 1509 1509 1508 1508 1508 1508 1507 1507 1507 1507 1507 1506 1506 1506 1505 1505
1501 1503 1505 1507 1509 1511 1512 1513 1514 1515 1516 1517 1517 1517 1517 1517 1516 1516 1515 1514 1514 1512 1511 1511 1510 1509 1508 1508 1508 1507 1507 1506 1506 1506 1505 1505 1505 1505 1504 1504 1503 1503 1503
1502 1503 1505 1506 1508 1510 1511 1512 1513 1515 1515 1516 1516 1517 1516 1516 1515 1515 1514 1514 1513 1512 1511 1510 1509 1508 1507 1507 1506 1506 1505 1504 1504 1504 1503 1503 1503 1502 1502 1501 1501 1500 1500
1502 1503 1504 1506 1507 1509 1510 1511 1513 1514 1514 1515 1515 1515 1515 1515 1514 1514 1513 1513 1512 1511 1510 1509 1508 1507 1506 1505 1505 1504 1503 1503 1502 1502 1501 1501 1500 1500 1499 1499 1498 1498 1497
1501 1502 1504 1505 1507 1508 1509 1510 1512 1512 1513 1513 1514 1513 1514 1513 1513 1513 1512 1511 1511 1510 1509 1508 1507 1506 1505 1504 1503 1503 1502 1501 1500 1500 1499 1499 1498 1497 1496 1496 1495 1495 1494
1500 1501 1503 1504 1506 1507 1508 1509 1510 1511 1511 1511 1512 1512 1512 1512 1512 1511 1511 1510 1509 1508 1508 1507 1506 1504 1503 1503 1502 1501 1500 1499 1499 1498 1497 1497 1496 1495 1494 1494 1493 1492 1492
1499 1500 1502 1503 1505 1506 1507 1508 1508 1509 1510 1510 1510 1510 1510 1510 1510 1510 1509 1508 1508 1507 1507 1505 1504 1503 1502 1501 1501 1500 1499 1498 1497 1496 1495 1495 1494 1493 1492 1492 1491 1491 1490
1497 1499 1500 1502 1503 1505 1506 1507 1508 1509 1509 1510 1510 1510 1509 1509 1509 1509 1508 1507 1507 1506 1505 1504 1503 1502 1501 1500 1499 1498 1497 1497 1495 1494 1494 1493 1492 1491 1490 1490 1489 1489 1488
1496 1498 1499 1501 1502 1504 1505 1506 1507 1507 1508 1508 1508 1508 1508 1508 1507 1507 1507 1506 1505 1505 1504 1503 1502 1501 1500 1499 1498 1497 1496 1495 1494 1493 1492 1491 1490 1490 1489 1488 1487 1486 1485
1496 1497 1498 1500 1501 1503 1504 1505 1505 1505 1506 1506 1506 1506 1506 1506 1505 1505 1505 1504 1504 1503 1502 1500 1500 1500 1499 1498 1497 1496 1495 1494 1493 1492 1491 1490 1489 1488 1487 1486 1485 1484 1483
1495 1496 1497 1499 1500 1501 1502 1503 1503 1504 1504 1504 1505 1505 1505 1504 1504 1503 1503 1502 1502 1501 1500 1499 1498 1498 1497 1496 1496 1495 1494 1492 1491 1490 1490 1489 1488 1487 1486 1484 1483 1482 1481
1494 1495 1496 1497 1499 1500 1501 1501 1502 1502 1503 1503 1503 1503 1503 1503 1502 1502 1501 1500 1499 1499 1498 1497 1497 1496 1496 1495 1494 1494 1492 1491 1490 1489 1488 1487 1486 1485 1484 1483 1481 1480 1479
1492 1493 1495 1496 1498 1499 1499 1500 1500 1501 1501 1501 1501 1501 1501 1501 1500 1500 1499 1498 1497 1497 1496 1496 1495 1494 1494 1493 1493 1492 1491 1490 1488 1487 1486 1486 1485 1483 1482 1481 1480 1479 1477
1491 1492 1493 1495 1496 1497 1498 1498 1499 1499 1499 1499 1499 1499 1499 1498 1498 1498 1497 1496 1495 1495 1494 1494 1493 1492 1492 1491 1491 1490 1489 1488 1487 1486 1485 1484 1483 1481 1480 1479 1477 1476 1474
1490 1491 1492 1493 1494 1495 1496 1496 1497 1497 1497 1497 1497 1497 1497 1496 1496 1496 1495 1494 1493 1492 1492 1491 1490 1490 1489 1489 1489 1488 1487 1486 1485 1484 1483 1482 1480 1479 1478 1476 1475 1474 1472
1488 1489 1490 1491 1492 1493 1494 1494 1495 1495 1495 1495 1495 1495 1495 1494 1494 1494 1493 1492 1491 1490 1490 1489 1488 1488 1487 1487 1486 1486 1485 1484 1483 1482 1480 1479 1478 1476 1475 1474 1472 1471 1470
1487 1488 1489 1490 1491 1491 1492 1492 1492 1493 1493 1493 1493 1493 1493 1493 1492 1491 1491 1490 1489 1488 1488 1487 1486 1485 1485 1485 1484 1483 1483 1482 1481 1479 1477 1476 1475 1474 1473 1471 1470 1469 1467